TimePST,TemperatureF,Dew PointF,Humidity,Sea Level PressureIn,VisibilityMPH,Wind Direction,Wind SpeedMPH,Gust SpeedMPH,PrecipitationIn,Events,Conditions,WindDirDegrees,DateUTC
12:53 AM,-0.9,-5.1,83,30.86,4.0,Calm,Calm,-,N/A,,Clear,0,2013-01-17 08:53:00
1:53 AM,-0.9,-6.0,79,30.85,6.0,Calm,Calm,-,N/A,,Haze,0,2013-01-17 09:53:00
2:53 AM,1.0,-4.0,79,30.84,6.0,SSW,3.5,-,N/A,,Haze,210,2013-01-17 10:53:00
3:53 AM,-0.4,-5.8,78,30.64,4.0,Calm,Calm,-,N/A,,Haze,0,2013-01-17 11:53:00
4:53 AM,-0.0,-6.0,76,30.85,5.0,Calm,Calm,-,N/A,,Haze,0,2013-01-17 12:53:00
5:53 AM,-0.9,-7.1,75,30.87,5.0,Calm,Calm,-,N/A,,Haze,0,2013-01-17 13:53:00
6:53 AM,-0.9,-7.1,75,30.87,5.0,Calm,Calm,-,N/A,,Haze,0,2013-01-17 14:53:00
7:30 AM,-0.4,-5.8,78,30.66,2.0,Calm,Calm,-,N/A,,Haze,0,2013-01-17 15:30:00
7:41 AM,-0.4,-7.6,72,30.66,4.0,Calm,Calm,-,N/A,,Haze,0,2013-01-17 15:41:00
7:53 AM,-0.0,-6.0,76,30.89,3.0,Calm,Calm,-,N/A,,Haze,0,2013-01-17 15:53:00
8:53 AM,7.0,-0.9,70,30.89,4.0,Calm,Calm,-,N/A,,Haze,0,2013-01-17 16:53:00
9:53 AM,12.0,5.0,73,30.87,5.0,Calm,Calm,-,N/A,,Haze,0,2013-01-17 17:53:00
10:53 AM,9.0,5.0,84,30.86,5.0,Calm,Calm,-,N/A,,Clear,0,2013-01-17 18:53:00
11:53 AM,15.1,9.0,77,30.81,7.0,West,3.5,-,N/A,,Clear,260,2013-01-17 19:53:00
12:53 PM,16.0,9.0,74,30.78,6.0,West,4.6,-,N/A,,Haze,270,2013-01-17 20:53:00
1:53 PM,18.0,10.9,74,30.74,7.0,WSW,3.5,-,N/A,,Clear,250,2013-01-17 21:53:00
2:53 PM,19.9,10.9,68,30.73,7.0,Calm,Calm,-,N/A,,Clear,0,2013-01-17 22:53:00
3:53 PM,17.1,10.0,74,30.74,7.0,WNW,3.5,-,N/A,,Clear,300,2013-01-17 23:53:00
4:53 PM,15.1,8.1,74,30.74,8.0,Calm,Calm,-,N/A,,Clear,0,2013-01-18 00:53:00
5:53 PM,9.0,3.9,80,30.76,6.0,ESE,3.5,-,N/A,,Haze,110,2013-01-18 01:53:00
6:53 PM,9.0,6.1,88,30.76,7.0,Calm,Calm,-,N/A,,Clear,0,2013-01-18 02:53:00
7:53 PM,9.0,3.9,80,30.75,8.0,Calm,Calm,-,N/A,,Clear,0,2013-01-18 03:53:00
8:53 PM,8.1,3.9,83,30.71,7.0,Calm,Calm,-,N/A,,Clear,0,2013-01-18 04:53:00
9:53 PM,8.1,3.0,80,30.70,7.0,Calm,Calm,-,N/A,,Clear,0,2013-01-18 05:53:00
10:53 PM,8.1,3.9,83,30.70,7.0,South,4.6,-,N/A,,Clear,190,2013-01-18 06:53:00
11:53 PM,5.0,1.9,87,30.70,7.0,Calm,Calm,-,N/A,,Clear,0,2013-01-18 07:53:00